Time,TemperatureF,DewpointF,PressureIn,WindDirection,WindDirectionDegrees,WindSpeedMPH,WindSpeedGustMPH,Humidity,HourlyPrecipIn,Conditions,Clouds,dailyrainin,SoftwareType,DateUTC
2013-09-13 00:00:00,62.4,61.8,29.76,WNW,292,0.0,-999.0,98,-99.99,,,0.00,Acu-Link.com,2013-09-13 07:00:00,
2013-09-13 00:16:00,62.6,62.0,29.76,ESE,112,0.0,-999.0,98,-99.99,,,0.00,Acu-Link.com,2013-09-13 07:16:00,
2013-09-13 00:31:00,62.6,62.0,29.76,SE,135,0.0,-999.0,98,-99.99,,,0.00,Acu-Link.com,2013-09-13 07:31:00,
2013-09-13 00:46:00,62.8,62.2,29.77,WSW,247,3.2,-999.0,98,-99.99,,,0.00,Acu-Link.com,2013-09-13 07:46:00,
2013-09-13 01:02:00,62.8,62.2,29.76,East,90,0.0,-999.0,98,-99.99,,,0.00,Acu-Link.com,2013-09-13 08:02:00,
2013-09-13 01:17:00,62.8,62.2,29.76,SW,225,0.0,-999.0,98,-99.99,,,0.00,Acu-Link.com,2013-09-13 08:17:00,
2013-09-13 01:32:00,63.0,62.4,29.76,WSW,247,1.1,-999.0,98,-99.99,,,0.00,Acu-Link.com,2013-09-13 08:32:00,
2013-09-13 01:48:00,63.0,62.4,29.77,SSW,202,0.0,-999.0,98,-99.99,,,0.00,Acu-Link.com,2013-09-13 08:48:00,
2013-09-13 02:03:00,63.0,62.4,29.77,WNW,292,0.0,-999.0,98,-99.99,,,0.00,Acu-Link.com,2013-09-13 09:03:00,
2013-09-13 02:18:00,63.0,62.4,29.77,WNW,292,0.0,-999.0,98,-99.99,,,0.00,Acu-Link.com,2013-09-13 09:18:00,
2013-09-13 02:33:00,63.0,62.4,29.77,SW,225,0.0,-999.0,98,-99.99,,,0.00,Acu-Link.com,2013-09-13 09:33:00,
2013-09-13 02:49:00,63.0,62.4,29.77,WSW,247,0.0,-999.0,98,-99.99,,,0.00,Acu-Link.com,2013-09-13 09:49:00,
2013-09-13 03:04:00,63.0,62.4,29.77,North,0,2.2,-999.0,98,-99.99,,,0.00,Acu-Link.com,2013-09-13 10:04:00,
2013-09-13 03:19:00,63.0,62.4,29.77,SW,225,0.0,-999.0,98,-99.99,,,0.00,Acu-Link.com,2013-09-13 10:19:00,
2013-09-13 03:35:00,63.0,62.4,29.76,SSW,202,0.0,-999.0,98,-99.99,,,0.00,Acu-Link.com,2013-09-13 10:35:00,
2013-09-13 03:50:00,63.1,62.5,29.76,SW,225,0.0,-999.0,98,-99.99,,,0.00,Acu-Link.com,2013-09-13 10:50:00,
2013-09-13 04:05:00,63.0,62.4,29.76,ENE,67,0.0,-999.0,98,-99.99,,,0.00,Acu-Link.com,2013-09-13 11:05:00,
2013-09-13 04:20:00,63.0,62.4,29.76,ESE,112,0.0,-999.0,98,-99.99,,,0.00,Acu-Link.com,2013-09-13 11:20:00,
2013-09-13 04:36:00,63.1,62.5,29.75,SSE,157,2.2,-999.0,98,-99.99,,,0.00,Acu-Link.com,2013-09-13 11:36:00,
2013-09-13 04:51:00,63.1,62.5,29.75,SE,135,0.0,-999.0,98,-99.99,,,0.00,Acu-Link.com,2013-09-13 11:51:00,
2013-09-13 05:06:00,63.1,62.5,29.75,SE,135,0.0,-999.0,98,-99.99,,,0.00,Acu-Link.com,2013-09-13 12:06:00,
2013-09-13 05:22:00,63.1,62.5,29.75,WSW,247,0.0,-999.0,98,-99.99,,,0.00,Acu-Link.com,2013-09-13 12:22:00,
2013-09-13 05:37:00,63.3,62.7,29.75,SSW,202,0.0,-999.0,98,-99.99,,,0.00,Acu-Link.com,2013-09-13 12:37:00,
2013-09-13 05:52:00,63.5,62.9,29.75,SSW,202,0.0,-999.0,98,-99.99,,,0.00,Acu-Link.com,2013-09-13 12:52:00,
2013-09-13 06:08:00,63.5,62.9,29.75,SSW,202,0.0,-999.0,98,-99.99,,,0.00,Acu-Link.com,2013-09-13 13:08:00,
2013-09-13 06:23:00,63.5,62.9,29.75,SSW,202,0.0,-999.0,98,-99.99,,,0.00,Acu-Link.com,2013-09-13 13:23:00,
2013-09-13 06:38:00,63.7,63.1,29.75,SSW,202,0.0,-999.0,98,-99.99,,,0.00,Acu-Link.com,2013-09-13 13:38:00,
2013-09-13 06:54:00,63.7,63.1,29.75,WSW,247,0.0,-999.0,98,-99.99,,,0.00,Acu-Link.com,2013-09-13 13:54:00,
2013-09-13 07:09:00,63.7,63.1,29.75,SSW,202,0.0,-999.0,98,-99.99,,,0.00,Acu-Link.com,2013-09-13 14:09:00,
2013-09-13 07:24:00,63.7,63.1,29.75,SSW,202,0.0,-999.0,98,-99.99,,,0.00,Acu-Link.com,2013-09-13 14:24:00,
2013-09-13 07:40:00,64.0,63.4,29.75,SE,135,0.0,-999.0,98,-99.99,,,0.00,Acu-Link.com,2013-09-13 14:40:00,
2013-09-13 07:55:00,64.0,63.4,29.76,SSW,202,0.0,-999.0,98,-99.99,,,0.00,Acu-Link.com,2013-09-13 14:55:00,
2013-09-13 08:10:00,64.0,63.4,29.76,SSW,202,0.0,-999.0,98,-99.99,,,0.00,Acu-Link.com,2013-09-13 15:10:00,
2013-09-13 08:25:00,64.0,63.4,29.76,WSW,247,0.0,-999.0,98,-99.99,,,0.00,Acu-Link.com,2013-09-13 15:25:00,
2013-09-13 08:41:00,64.2,63.6,29.76,SW,225,0.0,-999.0,98,-99.99,,,0.00,Acu-Link.com,2013-09-13 15:41:00,
2013-09-13 08:56:00,64.4,63.8,29.76,WSW,247,0.0,-999.0,98,-99.99,,,0.00,Acu-Link.com,2013-09-13 15:56:00,
2013-09-13 09:11:00,64.8,64.2,29.76,West,270,0.0,-999.0,98,-99.99,,,0.00,Acu-Link.com,2013-09-13 16:11:00,
2013-09-13 09:27:00,64.9,64.3,29.76,West,270,1.7,-999.0,98,-99.99,,,0.00,Acu-Link.com,2013-09-13 16:27:00,
2013-09-13 09:42:00,64.9,64.3,29.76,WNW,292,0.0,-999.0,98,-99.99,,,0.00,Acu-Link.com,2013-09-13 16:42:00,
2013-09-13 09:57:00,64.4,63.8,29.76,NW,315,0.0,-999.0,98,-99.99,,,0.00,Acu-Link.com,2013-09-13 16:57:00,
2013-09-13 10:13:00,64.0,63.4,29.76,SSE,157,0.0,-999.0,98,-99.99,,,0.00,Acu-Link.com,2013-09-13 17:13:00,
2013-09-13 10:28:00,64.0,63.4,29.76,NNE,22,0.0,-999.0,98,-99.99,,,0.00,Acu-Link.com,2013-09-13 17:28:00,
2013-09-13 10:43:00,64.2,63.6,29.75,West,270,0.0,-999.0,98,-99.99,,,0.00,Acu-Link.com,2013-09-13 17:43:00,
2013-09-13 10:59:00,64.8,64.2,29.76,SW,225,0.0,-999.0,98,-99.99,,,0.00,Acu-Link.com,2013-09-13 17:59:00,
2013-09-13 11:14:00,64.9,64.3,29.75,SW,225,0.0,-999.0,98,-99.99,,,0.00,Acu-Link.com,2013-09-13 18:14:00,
2013-09-13 11:29:00,65.1,64.5,29.75,SSW,202,0.0,-999.0,98,-99.99,,,0.00,Acu-Link.com,2013-09-13 18:29:00,
2013-09-13 11:45:00,65.1,64.5,29.75,WSW,247,1.7,-999.0,98,-99.99,,,0.00,Acu-Link.com,2013-09-13 18:45:00,
2013-09-13 12:00:00,65.8,65.2,29.75,West,270,1.7,-999.0,98,-99.99,,,0.00,Acu-Link.com,2013-09-13 19:00:00,
2013-09-13 12:15:00,66.9,66.3,29.74,SSW,202,0.0,-999.0,98,-99.99,,,0.00,Acu-Link.com,2013-09-13 19:15:00,
2013-09-13 12:30:00,67.1,62.8,29.74,NNE,22,1.1,-999.0,86,-99.99,,,0.00,Acu-Link.com,2013-09-13 19:30:00,
2013-09-13 12:46:00,67.1,10.9,29.74,NW,315,0.0,-999.0,11,-99.99,,,0.00,Acu-Link.com,2013-09-13 19:46:00,
2013-09-13 13:01:00,67.5,-23.8,29.73,West,270,0.0,-999.0,2,-99.99,,,0.00,Acu-Link.com,2013-09-13 20:01:00,
2013-09-13 13:16:00,67.3,66.7,29.74,West,270,0.0,-999.0,98,-99.99,,,0.00,Acu-Link.com,2013-09-13 20:16:00,
2013-09-13 13:32:00,67.1,-16.3,29.74,WSW,247,2.7,-999.0,3,-99.99,,,0.00,Acu-Link.com,2013-09-13 20:32:00,
2013-09-13 13:47:00,66.9,32.7,29.74,West,270,0.0,-999.0,28,-99.99,,,0.00,Acu-Link.com,2013-09-13 20:47:00,
2013-09-13 14:02:00,67.1,6.4,29.73,WSW,247,2.2,-999.0,9,-99.99,,,0.00,Acu-Link.com,2013-09-13 21:02:00,
2013-09-13 14:18:00,67.1,-36.6,29.73,West,270,1.1,-999.0,1,-99.99,,,0.00,Acu-Link.com,2013-09-13 21:18:00,
2013-09-13 14:33:00,67.1,8.7,29.73,WNW,292,2.7,-999.0,10,-99.99,,,0.00,Acu-Link.com,2013-09-13 21:33:00,
2013-09-13 14:48:00,66.6,66.0,29.73,West,270,1.7,-999.0,98,-99.99,,,0.00,Acu-Link.com,2013-09-13 21:48:00,
2013-09-13 15:04:00,66.6,66.0,29.72,NW,315,1.7,-999.0,98,-99.99,,,0.00,Acu-Link.com,2013-09-13 22:04:00,
2013-09-13 15:19:00,66.6,66.0,29.72,North,0,1.1,-999.0,98,-99.99,,,0.00,Acu-Link.com,2013-09-13 22:19:00,
2013-09-13 15:34:00,66.6,66.0,29.72,WSW,247,0.0,-999.0,98,-99.99,,,0.00,Acu-Link.com,2013-09-13 22:34:00,
2013-09-13 15:50:00,66.6,66.0,29.72,West,270,0.0,-999.0,98,-99.99,,,0.00,Acu-Link.com,2013-09-13 22:50:00,
2013-09-13 16:05:00,66.6,66.0,29.71,WNW,292,1.7,-999.0,98,-99.99,,,0.00,Acu-Link.com,2013-09-13 23:05:00,
2013-09-13 16:20:00,66.2,65.6,29.71,West,270,1.7,-999.0,98,-99.99,,,0.00,Acu-Link.com,2013-09-13 23:20:00,
2013-09-13 16:35:00,65.8,65.2,29.70,SW,225,1.7,-999.0,98,-99.99,,,0.00,Acu-Link.com,2013-09-13 23:35:00,
2013-09-13 16:50:00,66.0,65.4,29.70,WNW,292,1.1,-999.0,98,-99.99,,,0.00,Acu-Link.com,2013-09-13 23:50:00,
2013-09-13 17:06:00,66.0,65.4,29.70,WSW,247,0.0,-999.0,98,-99.99,,,0.00,Acu-Link.com,2013-09-14 00:06:00,
2013-09-13 17:21:00,65.8,65.2,29.69,West,270,0.0,-999.0,98,-99.99,,,0.00,Acu-Link.com,2013-09-14 00:21:00,
2013-09-13 17:36:00,65.8,65.2,29.69,West,270,0.0,-999.0,98,-99.99,,,0.00,Acu-Link.com,2013-09-14 00:36:00,
2013-09-13 17:52:00,65.3,64.7,29.69,West,270,1.7,-999.0,98,-99.99,,,0.00,Acu-Link.com,2013-09-14 00:52:00,
2013-09-13 18:07:00,64.8,64.2,29.69,SSW,202,0.0,-999.0,98,-99.99,,,0.00,Acu-Link.com,2013-09-14 01:07:00,
2013-09-13 18:22:00,64.2,63.6,29.68,West,270,1.7,-999.0,98,-99.99,,,0.00,Acu-Link.com,2013-09-14 01:22:00,
2013-09-13 18:37:00,63.9,63.3,29.68,SW,225,1.1,-999.0,98,-99.99,,,0.00,Acu-Link.com,2013-09-14 01:37:00,
2013-09-13 18:53:00,63.7,63.1,29.67,South,180,2.2,-999.0,98,-99.99,,,0.00,Acu-Link.com,2013-09-14 01:53:00,
2013-09-13 19:08:00,63.5,62.9,29.67,West,270,0.0,-999.0,98,-99.99,,,0.00,Acu-Link.com,2013-09-14 02:08:00,
2013-09-13 19:23:00,63.3,62.7,29.68,SW,225,1.1,-999.0,98,-99.99,,,0.00,Acu-Link.com,2013-09-14 02:23:00,
2013-09-13 19:39:00,63.3,62.7,29.67,WNW,292,0.0,-999.0,98,-99.99,,,0.00,Acu-Link.com,2013-09-14 02:39:00,
2013-09-13 19:54:00,63.1,62.5,29.68,WNW,292,0.0,-999.0,98,-99.99,,,0.00,Acu-Link.com,2013-09-14 02:54:00,
2013-09-13 20:09:00,62.8,62.2,29.68,WNW,292,0.0,-999.0,98,-99.99,,,0.00,Acu-Link.com,2013-09-14 03:09:00,
2013-09-13 20:25:00,62.8,62.2,29.68,West,270,1.1,-999.0,98,-99.99,,,0.00,Acu-Link.com,2013-09-14 03:25:00,
2013-09-13 20:40:00,62.6,62.0,29.68,NNE,22,0.0,-999.0,98,-99.99,,,0.00,Acu-Link.com,2013-09-14 03:40:00,
2013-09-13 20:55:00,62.6,62.0,29.68,SW,225,0.0,-999.0,98,-99.99,,,0.00,Acu-Link.com,2013-09-14 03:55:00,
2013-09-13 21:10:00,62.6,62.0,29.68,SW,225,0.0,-999.0,98,-99.99,,,0.00,Acu-Link.com,2013-09-14 04:10:00,
2013-09-13 21:26:00,62.6,62.0,29.68,NW,315,0.0,-999.0,98,-99.99,,,0.00,Acu-Link.com,2013-09-14 04:26:00,
2013-09-13 21:41:00,62.6,62.0,29.68,NE,45,0.0,-999.0,98,-99.99,,,0.00,Acu-Link.com,2013-09-14 04:41:00,
2013-09-13 21:56:00,62.6,62.0,29.68,NE,45,0.0,-999.0,98,-99.99,,,0.00,Acu-Link.com,2013-09-14 04:56:00,
2013-09-13 22:12:00,62.4,61.8,29.68,WNW,292,0.0,-999.0,98,-99.99,,,0.00,Acu-Link.com,2013-09-14 05:12:00,
2013-09-13 22:27:00,62.4,61.8,29.68,North,0,0.0,-999.0,98,-99.99,,,0.00,Acu-Link.com,2013-09-14 05:27:00,
2013-09-13 22:42:00,62.6,62.0,29.69,West,270,0.0,-999.0,98,-99.99,,,0.00,Acu-Link.com,2013-09-14 05:42:00,
2013-09-13 22:58:00,62.6,62.0,29.68,WSW,247,0.0,-999.0,98,-99.99,,,0.00,Acu-Link.com,2013-09-14 05:58:00,
2013-09-13 23:13:00,62.6,62.0,29.68,West,270,0.0,-999.0,98,-99.99,,,0.00,Acu-Link.com,2013-09-14 06:13:00,
2013-09-13 23:28:00,62.6,62.0,29.68,ESE,112,0.0,-999.0,98,-99.99,,,0.00,Acu-Link.com,2013-09-14 06:28:00,
2013-09-13 23:44:00,62.4,61.8,29.67,SSW,202,0.0,-999.0,98,-99.99,,,0.00,Acu-Link.com,2013-09-14 06:44:00,
2013-09-13 23:59:00,62.6,62.0,29.68,SSW,202,0.0,-999.0,98,-99.99,,,0.00,Acu-Link.com,2013-09-14 06:59:00,